Theta_e
308 305 302 304 310 311 312 316 315 314 319 320 327 340 340 349 352 355 360 365 361 363 364 365 364 363 362 361 361 360 361 362
306 304 308 309 311 310 311 312 315 315 312 319 334 332 327 344 354 356 359 362 359 362 363 364 364 363 362 361 360 361 362 362
304 304 308 311 311 310 310 312 312 313 311 314 328 326 326 335 349 355 358 359 360 361 363 364 364 363 362 361 360 361 361 361
302 306 310 311 312 311 310 312 313 312 312 315 328 326 324 332 341 352 357 359 359 360 362 362 363 363 362 361 360 360 361 360
304 304 306 308 313 310 311 311 311 314 310 316 321 329 325 324 342 349 357 358 358 356 360 362 361 361 361 360 360 360 360 360
305 303 305 310 310 311 309 310 316 315 308 312 320 324 323 323 330 346 357 356 356 352 351 354 359 361 361 360 360 359 359 359
303 303 305 309 307 310 313 309 311 313 313 317 319 320 320 320 322 340 355 354 354 352 347 348 349 358 360 359 360 359 358 359
306 306 304 306 307 307 307 308 308 310 314 315 316 317 316 317 319 324 346 355 353 355 349 345 343 355 354 355 355 353 352 355
306 307 308 307 307 309 307 305 309 308 312 315 316 316 316 317 319 320 334 352 355 356 357 347 343 350 347 348 347 349 350 354
307 307 307 305 308 306 307 308 311 312 313 314 314 315 316 316 318 320 323 348 356 355 357 354 346 347 344 345 346 347 347 358
308 309 309 310 307 307 307 311 312 312 311 311 314 315 318 319 320 321 322 329 352 355 355 357 361 349 345 347 346 347 350 354
309 309 310 307 307 308 309 311 311 312 310 311 312 314 316 319 320 322 324 326 349 358 355 356 355 359 353 351 347 347 350 353
309 309 307 309 304 305 311 312 311 311 312 312 313 315 316 317 321 323 324 334 343 358 353 353 357 357 354 349 347 347 350 359
308 309 309 307 300 308 311 311 311 311 312 313 314 315 317 319 321 325 325 330 345 355 355 353 356 356 353 350 348 348 348 354
303 309 308 307 303 309 312 312 311 312 313 313 315 317 320 319 320 322 325 328 333 350 354 357 359 356 356 358 349 348 347 349
301 306 307 305 305 309 312 312 312 313 314 315 315 317 320 323 322 323 325 333 340 347 356 362 360 360 353 352 349 348 346 347
304 308 306 306 306 309 312 313 313 314 315 316 317 320 321 323 326 324 327 333 344 344 356 357 357 354 352 349 349 347 345 352
305 308 307 306 306 310 312 312 313 313 313 314 315 316 319 324 325 329 329 332 341 351 358 358 355 356 357 351 350 347 347 351
301 305 308 307 304 307 311 313 312 312 313 314 315 316 317 319 325 328 329 332 334 353 355 358 359 357 357 351 348 347 346 344
303 302 298 308 297 305 308 308 310 312 313 314 317 318 320 317 320 326 326 332 332 350 353 357 359 355 353 347 341 345 345 346
Wind_Speed
7 15 17 16 6 7 7 5 5 6 0 10 7 14 8 11 5 2 10 15 15 16 15 16 14 15 17 16 16 16 15 15
12 19 17 15 6 1 7 6 7 10 7 4 8 6 7 6 4 5 7 13 19 17 15 16 15 16 18 17 16 16 15 14
15 19 21 8 5 3 11 11 6 9 11 8 12 5 7 6 3 3 9 10 16 15 15 16 18 17 17 19 18 16 15 14
15 20 18 8 0 8 11 13 9 9 11 13 17 5 7 8 4 3 9 11 15 13 13 15 16 17 17 18 19 17 15 13
19 18 7 1 6 7 15 17 14 5 11 8 13 5 7 12 2 3 8 13 13 15 14 14 15 16 17 16 17 17 15 13
17 10 16 4 5 9 9 16 15 10 8 13 10 8 11 11 7 4 7 8 14 14 17 14 14 13 15 15 16 16 15 13
13 13 11 7 11 8 10 11 16 19 21 19 20 16 15 13 14 6 9 8 12 16 17 18 16 15 13 16 15 14 14 13
13 12 12 13 16 16 17 20 21 19 22 22 19 19 17 14 12 13 12 11 11 15 17 17 14 16 14 15 13 13 13 14
7 7 11 15 17 17 19 20 20 19 21 21 19 17 16 16 16 15 8 12 12 10 16 18 15 12 9 8 10 10 15 13
10 11 14 16 18 19 20 21 19 19 21 22 21 19 18 18 18 16 15 13 14 9 12 16 12 12 12 10 10 9 13 14
13 16 18 18 20 22 24 21 19 19 21 22 22 22 20 18 16 16 15 13 16 12 8 13 11 13 13 12 10 11 12 14
18 19 18 18 19 19 22 18 18 18 16 18 20 22 20 19 17 15 13 17 12 16 6 14 13 11 10 10 13 12 11 12
19 8 11 13 19 23 20 13 17 17 18 17 18 19 19 19 18 15 14 15 16 18 14 12 17 12 11 12 12 12 11 14
5 8 11 7 20 16 15 14 17 18 18 18 17 18 18 17 17 17 15 15 16 16 19 16 14 13 12 12 11 11 11 10
19 11 15 13 21 20 19 22 21 19 19 18 19 20 19 19 17 17 15 15 17 17 22 22 17 13 15 14 13 12 12 12
20 17 19 21 25 22 20 23 25 23 21 21 22 23 19 20 19 17 17 15 17 15 17 20 15 13 11 11 13 12 12 12
20 15 18 20 25 25 24 23 24 23 21 20 20 19 20 19 18 18 16 15 17 18 17 14 13 13 12 12 13 13 12 13
18 18 21 24 26 18 18 10 15 14 14 15 15 15 18 18 18 17 15 15 17 16 15 15 14 13 12 12 13 13 12 11
23 24 26 21 18 11 16 17 5 7 11 11 13 14 15 19 18 16 16 15 18 16 16 17 18 13 12 10 9 13 13 13
23 23 17 19 17 15 11 13 8 10 11 16 20 22 19 15 19 17 17 16 19 16 16 18 19 17 20 13 11 12 13 12
Wind_Direction
227 233 252 266 25 355 227 94 273 282 168 322 26 48 10 31 354 313 146 145 165 155 159 155 162 160 153 155 158 157 164 165
256 250 241 253 346 316 282 235 243 254 301 175 61 73 1 25 13 128 160 159 137 154 157 155 159 160 156 155 157 159 163 165
234 250 265 275 284 14 266 263 241 230 256 260 132 112 359 34 112 191 164 160 150 154 159 160 156 162 160 154 156 159 161 165
247 244 236 231 133 251 270 269 231 256 260 263 114 166 13 9 10 233 172 168 145 159 166 161 159 159 161 158 154 157 158 167
274 279 283 267 31 279 261 258 248 278 282 280 226 113 7 319 61 255 210 159 151 175 172 163 160 161 159 162 157 155 158 161
266 266 264 249 180 264 270 279 301 319 261 230 250 23 329 301 299 238 124 173 160 178 181 185 167 165 161 161 159 153 153 154
267 278 293 283 282 247 282 265 274 271 268 281 304 304 295 290 286 209 118 195 179 180 183 186 183 167 164 160 158 153 152 152
11 333 301 295 285 288 276 270 264 263 267 262 265 269 270 274 270 269 170 187 208 185 188 192 180 164 188 178 184 186 182 175
307 299 303 288 281 279 274 265 266 270 272 279 280 274 273 272 268 274 231 188 184 212 175 194 190 165 183 181 188 189 186 177
295 298 284 282 289 282 276 279 284 283 284 283 279 276 270 266 261 250 249 179 179 196 190 199 189 171 187 181 186 185 187 177
275 273 275 279 270 276 274 278 278 272 268 263 265 264 267 266 270 278 280 280 176 162 222 188 208 176 194 186 188 188 180 182
280 275 274 274 279 278 273 270 263 257 259 263 264 263 259 257 253 246 252 262 203 169 196 191 208 187 193 195 180 194 180 179
256 249 271 268 272 256 258 270 266 271 263 257 258 265 261 254 257 254 240 235 258 175 177 219 194 190 206 186 191 194 183 172
122 266 280 304 283 283 280 297 275 256 251 260 256 258 266 252 247 253 253 246 229 191 183 194 202 193 195 196 199 195 189 172
308 307 297 266 282 280 272 270 261 259 257 258 257 252 250 257 246 242 246 249 255 216 192 196 204 199 202 196 206 191 190 180
299 304 298 288 282 291 285 279 279 275 272 266 258 256 256 253 248 236 238 238 239 231 223 179 199 209 201 200 199 193 191 186
287 302 297 302 297 293 288 282 278 277 277 275 276 265 252 249 255 246 232 236 245 236 207 187 187 202 202 202 192 199 193 181
316 328 310 295 289 296 291 316 304 293 297 290 285 294 272 256 244 246 227 221 250 225 212 190 194 200 200 204 194 200 185 175
317 313 294 294 305 330 326 280 282 272 265 279 275 283 273 273 244 239 224 224 244 215 218 207 206 188 204 214 193 198 178 168
307 307 307 319 305 300 305 308 1 318 323 326 329 313 290 252 250 230 230 218 239 219 212 209 201 193 198 207 194 188 181 175